Powrót do katalogu

STARLINK-34959

AktywnyŁącznośćSSO
NORAD 65246·PAYLOAD·🇺🇸 United States

Wystrzelony Aug 18, 2025 z Vandenberg Space Force Base

Loading…

Następne Przeloty (najbliższe 24 godziny)

TLE

ŚwieżeSource: CelesTrak SupGP

Epoka: Sep 14, 2026, 22:40 UTC

1 65246C 25179M   26257.94493056  .00048249  00000+0  14982-2 0  2578
2 65246  97.2833 297.4089 0001063 105.4160 264.9640 15.33405490    19

Śledź STARLINK-34959 w czasie rzeczywistym z AllMySat

Download on the App Store